Time,TemperatureF,DewpointF,PressureIn,WindDirection,WindDirectionDegrees,WindSpeedMPH,WindSpeedGustMPH,Humidity,HourlyPrecipIn,Conditions,Clouds,dailyrainin,SoftwareType,DateUTC
2013-02-23 00:00:00,69.0,62.2,32.70,NE,45,0.0,0.0,79,0.00,,,0.00,Weather View 32 v70,2013-02-23 05:00:00,
2013-02-23 00:05:00,69.0,62.2,32.70,NE,45,0.0,0.0,79,0.00,,,0.00,Weather View 32 v70,2013-02-23 05:05:00,
2013-02-23 00:10:00,69.0,62.2,32.70,NE,45,0.0,0.0,79,0.00,,,0.00,Weather View 32 v70,2013-02-23 05:10:00,
2013-02-23 00:15:00,69.0,62.2,32.70,NE,45,0.0,0.0,79,0.00,,,0.00,Weather View 32 v70,2013-02-23 05:15:00,
2013-02-23 00:20:00,69.0,62.2,32.70,NE,45,0.0,0.0,79,0.00,,,0.00,Weather View 32 v70,2013-02-23 05:20:00,
2013-02-23 00:25:00,69.0,62.2,32.70,NE,45,0.0,0.0,79,0.00,,,0.00,Weather View 32 v70,2013-02-23 05:25:00,
2013-02-23 00:30:00,69.0,62.2,32.70,NE,45,0.0,0.0,79,0.00,,,0.00,Weather View 32 v70,2013-02-23 05:30:00,
2013-02-23 00:35:00,69.0,62.2,32.70,NE,45,0.0,0.0,79,0.00,,,0.00,Weather View 32 v70,2013-02-23 05:35:00,
2013-02-23 00:40:00,69.0,62.2,32.70,NE,45,0.0,0.0,79,0.00,,,0.00,Weather View 32 v70,2013-02-23 05:40:00,
2013-02-23 00:45:00,69.0,62.2,32.70,NE,45,0.0,0.0,79,0.00,,,0.00,Weather View 32 v70,2013-02-23 05:45:00,
2013-02-23 00:50:00,69.0,62.2,32.70,NE,45,0.0,0.0,79,0.00,,,0.00,Weather View 32 v70,2013-02-23 05:50:00,
2013-02-23 00:55:00,69.0,62.2,32.70,NE,45,0.0,0.0,79,0.00,,,0.00,Weather View 32 v70,2013-02-23 05:55:00,
2013-02-23 01:00:00,69.0,62.2,32.70,NE,45,0.0,0.0,79,0.00,,,0.00,Weather View 32 v70,2013-02-23 06:00:00,
2013-02-23 01:05:00,69.0,62.2,32.70,NE,45,0.0,1.0,79,0.00,,,0.00,Weather View 32 v70,2013-02-23 06:05:00,
2013-02-23 01:10:00,70.0,63.5,32.70,NE,45,0.0,1.0,80,0.00,,,0.00,Weather View 32 v70,2013-02-23 06:10:00,
2013-02-23 01:15:00,70.0,63.5,32.70,NE,45,0.0,1.0,80,0.00,,,0.00,Weather View 32 v70,2013-02-23 06:15:00,
2013-02-23 01:20:00,70.0,63.5,32.70,NE,45,0.0,1.0,80,0.00,,,0.00,Weather View 32 v70,2013-02-23 06:20:00,
2013-02-23 01:30:00,70.0,63.5,32.70,ENE,67,0.0,1.0,80,0.00,,,0.00,Weather View 32 v70,2013-02-23 06:30:00,
2013-02-23 02:00:00,70.0,63.5,32.70,NE,45,0.0,1.0,80,0.00,,,0.00,Weather View 32 v70,2013-02-23 07:00:00,
2013-02-23 02:30:00,69.0,62.2,32.70,East,90,0.0,1.0,79,0.00,,,0.00,Weather View 32 v70,2013-02-23 07:30:00,
2013-02-23 03:00:00,69.0,62.2,32.70,ENE,67,0.0,1.0,79,0.00,,,0.00,Weather View 32 v70,2013-02-23 08:00:00,
2013-02-23 03:30:00,69.0,62.2,32.70,NE,45,0.0,0.0,79,0.00,,,0.00,Weather View 32 v70,2013-02-23 08:30:00,
2013-02-23 04:00:00,69.0,62.2,32.70,NE,45,0.0,0.0,79,0.00,,,0.00,Weather View 32 v70,2013-02-23 09:00:00,
2013-02-23 04:30:00,69.0,62.2,32.70,SSE,157,0.0,0.0,79,0.00,,,0.00,Weather View 32 v70,2013-02-23 09:30:00,
2013-02-23 05:00:00,68.0,61.2,32.70,ENE,67,0.0,0.0,79,0.00,,,0.00,Weather View 32 v70,2013-02-23 10:00:00,
2013-02-23 05:30:00,68.0,61.2,32.70,NE,45,1.0,1.0,79,0.00,,,0.00,Weather View 32 v70,2013-02-23 10:30:00,
2013-02-23 06:00:00,68.0,61.2,32.70,ENE,67,0.0,2.0,79,0.00,,,0.00,Weather View 32 v70,2013-02-23 11:00:00,
2013-02-23 06:30:00,68.0,61.2,32.70,SE,135,0.0,2.0,79,0.00,,,0.00,Weather View 32 v70,2013-02-23 11:30:00,
2013-02-23 07:00:00,68.0,61.2,32.70,ENE,67,0.0,1.0,79,0.00,,,0.00,Weather View 32 v70,2013-02-23 12:00:00,
2013-02-23 07:30:00,69.0,62.2,32.70,NE,45,0.0,1.0,79,0.00,,,0.00,Weather View 32 v70,2013-02-23 12:30:00,
2013-02-23 08:00:00,69.0,62.2,32.70,South,180,0.0,1.0,79,0.00,,,0.00,Weather View 32 v70,2013-02-23 13:00:00,
2013-02-23 08:30:00,70.0,63.5,32.70,SSW,202,0.0,1.0,80,0.00,,,0.00,Weather View 32 v70,2013-02-23 13:30:00,
2013-02-23 09:00:00,70.0,63.5,32.69,South,180,0.0,1.0,80,0.00,,,0.00,Weather View 32 v70,2013-02-23 14:00:00,
2013-02-23 09:30:00,72.0,65.5,32.68,SSW,202,0.0,1.0,80,0.00,,,0.00,Weather View 32 v70,2013-02-23 14:30:00,
2013-02-23 10:00:00,77.0,68.0,32.58,South,180,0.0,2.0,74,0.00,,,0.00,Weather View 32 v70,2013-02-23 15:00:00,
2013-02-23 10:30:00,78.0,67.4,32.64,SSW,202,0.0,3.0,70,0.00,,,0.00,Weather View 32 v70,2013-02-23 15:30:00,
2013-02-23 11:00:00,81.0,67.2,32.46,South,180,0.0,3.0,63,0.00,,,0.00,Weather View 32 v70,2013-02-23 16:00:00,
2013-02-23 11:30:00,77.0,66.8,32.64,SSW,202,0.0,3.0,71,0.00,,,0.00,Weather View 32 v70,2013-02-23 16:30:00,
2013-02-23 12:00:00,78.0,67.0,32.65,South,180,0.0,1.0,69,0.00,,,0.00,Weather View 32 v70,2013-02-23 17:00:00,
2013-02-23 12:30:00,79.0,66.6,32.64,SW,225,0.0,3.0,66,0.00,,,0.00,Weather View 32 v70,2013-02-23 17:30:00,
2013-02-23 13:00:00,79.0,66.2,32.64,South,180,0.0,3.0,65,0.00,,,0.00,Weather View 32 v70,2013-02-23 18:00:00,
2013-02-23 13:30:00,81.0,65.8,32.64,SW,225,0.0,2.0,60,0.00,,,0.00,Weather View 32 v70,2013-02-23 18:30:00,
2013-02-23 14:00:00,82.0,65.7,32.63,SSW,202,0.0,3.0,58,0.00,,,0.00,Weather View 32 v70,2013-02-23 19:00:00,
2013-02-23 14:30:00,83.0,64.6,32.62,South,180,0.0,3.0,54,0.00,,,0.00,Weather View 32 v70,2013-02-23 19:30:00,
2013-02-23 15:00:00,84.0,63.9,32.62,South,180,0.0,2.0,51,0.00,,,0.00,Weather View 32 v70,2013-02-23 20:00:00,
2013-02-23 15:30:00,83.0,64.0,32.62,South,180,0.0,3.0,53,0.00,,,0.00,Weather View 32 v70,2013-02-23 20:30:00,
2013-02-23 15:35:00,83.0,64.6,32.62,SW,225,0.0,3.0,54,0.00,,,0.00,Weather View 32 v70,2013-02-23 20:35:00,
2013-02-23 15:40:00,83.0,64.0,32.62,SW,225,0.0,3.0,53,0.00,,,0.00,Weather View 32 v70,2013-02-23 20:40:00,
2013-02-23 15:45:00,83.0,64.0,32.62,SSW,202,0.0,3.0,53,0.00,,,0.00,Weather View 32 v70,2013-02-23 20:45:00,
2013-02-23 15:50:00,83.0,63.5,32.62,SSW,202,0.0,3.0,52,0.00,,,0.00,Weather View 32 v70,2013-02-23 20:50:00,
2013-02-23 15:55:00,83.0,63.5,32.62,SSW,202,0.0,3.0,52,0.00,,,0.00,Weather View 32 v70,2013-02-23 20:55:00,
2013-02-23 16:00:00,83.0,64.0,32.62,SSW,202,0.0,3.0,53,0.00,,,0.00,Weather View 32 v70,2013-02-23 21:00:00,
2013-02-23 16:05:00,83.0,64.0,32.62,SSW,202,0.0,3.0,53,0.00,,,0.00,Weather View 32 v70,2013-02-23 21:05:00,
2013-02-23 16:10:00,83.0,62.9,32.62,South,180,0.0,1.0,51,0.00,,,0.00,Weather View 32 v70,2013-02-23 21:10:00,
2013-02-23 16:15:00,83.0,63.5,32.62,South,180,0.0,2.0,52,0.00,,,0.00,Weather View 32 v70,2013-02-23 21:15:00,
2013-02-23 16:20:00,83.0,63.5,32.62,South,180,0.0,2.0,52,0.00,,,0.00,Weather View 32 v70,2013-02-23 21:20:00,
2013-02-23 16:25:00,83.0,63.5,32.62,SSE,157,0.0,2.0,52,0.00,,,0.00,Weather View 32 v70,2013-02-23 21:25:00,
2013-02-23 16:30:00,83.0,62.9,32.62,SSE,157,0.0,2.0,51,0.00,,,0.00,Weather View 32 v70,2013-02-23 21:30:00,
2013-02-23 16:35:00,83.0,62.9,32.62,SSW,202,0.0,2.0,51,0.00,,,0.00,Weather View 32 v70,2013-02-23 21:35:00,
2013-02-23 16:40:00,83.0,62.4,32.62,SSE,157,0.0,2.0,50,0.00,,,0.00,Weather View 32 v70,2013-02-23 21:40:00,
2013-02-23 16:45:00,83.0,62.9,32.62,South,180,0.0,2.0,51,0.00,,,0.00,Weather View 32 v70,2013-02-23 21:45:00,
2013-02-23 16:50:00,83.0,62.9,32.62,South,180,0.0,2.0,51,0.00,,,0.00,Weather View 32 v70,2013-02-23 21:50:00,
2013-02-23 16:55:00,83.0,62.9,32.62,South,180,0.0,2.0,51,0.00,,,0.00,Weather View 32 v70,2013-02-23 21:55:00,
2013-02-23 17:00:00,83.0,62.9,32.62,SW,225,0.0,2.0,51,0.00,,,0.00,Weather View 32 v70,2013-02-23 22:00:00,
2013-02-23 17:05:00,82.0,62.0,32.62,SW,225,0.0,2.0,51,0.00,,,0.00,Weather View 32 v70,2013-02-23 22:05:00,
2013-02-23 17:10:00,82.0,62.0,32.62,SW,225,0.0,2.0,51,0.00,,,0.00,Weather View 32 v70,2013-02-23 22:10:00,
2013-02-23 17:15:00,82.0,62.6,32.62,SSW,202,0.0,2.0,52,0.00,,,0.00,Weather View 32 v70,2013-02-23 22:15:00,
2013-02-23 17:20:00,82.0,62.6,32.62,SSW,202,0.0,2.0,52,0.00,,,0.00,Weather View 32 v70,2013-02-23 22:20:00,
2013-02-23 17:25:00,81.0,61.7,32.63,SSW,202,0.0,2.0,52,0.00,,,0.00,Weather View 32 v70,2013-02-23 22:25:00,
2013-02-23 17:30:00,81.0,62.2,32.63,SSW,202,0.0,2.0,53,0.00,,,0.00,Weather View 32 v70,2013-02-23 22:30:00,
2013-02-23 17:35:00,81.0,62.7,32.63,SSW,202,0.0,2.0,54,0.00,,,0.00,Weather View 32 v70,2013-02-23 22:35:00,
2013-02-23 17:40:00,81.0,62.7,32.63,SSW,202,0.0,2.0,54,0.00,,,0.00,Weather View 32 v70,2013-02-23 22:40:00,
2013-02-23 17:45:00,81.0,62.7,32.63,SSE,157,0.0,2.0,54,0.00,,,0.00,Weather View 32 v70,2013-02-23 22:45:00,
2013-02-23 17:50:00,80.0,61.8,32.63,SSE,157,0.0,2.0,54,0.00,,,0.00,Weather View 32 v70,2013-02-23 22:50:00,
2013-02-23 17:55:00,80.0,62.3,32.63,South,180,0.0,2.0,55,0.00,,,0.00,Weather View 32 v70,2013-02-23 22:55:00,
2013-02-23 18:00:00,80.0,62.3,32.63,South,180,0.0,1.0,55,0.00,,,0.00,Weather View 32 v70,2013-02-23 23:00:00,
2013-02-23 18:05:00,80.0,62.8,32.64,South,180,0.0,1.0,56,0.00,,,0.00,Weather View 32 v70,2013-02-23 23:05:00,
2013-02-23 18:10:00,79.0,61.4,32.64,South,180,0.0,1.0,55,0.00,,,0.00,Weather View 32 v70,2013-02-23 23:10:00,
2013-02-23 18:15:00,79.0,61.4,32.64,South,180,0.0,1.0,55,0.00,,,0.00,Weather View 32 v70,2013-02-23 23:15:00,
2013-02-23 18:20:00,79.0,61.9,32.64,South,180,0.0,1.0,56,0.00,,,0.00,Weather View 32 v70,2013-02-23 23:20:00,
2013-02-23 18:25:00,79.0,61.9,32.64,South,180,0.0,1.0,56,0.00,,,0.00,Weather View 32 v70,2013-02-23 23:25:00,
2013-02-23 18:30:00,79.0,62.4,32.64,South,180,0.0,1.0,57,0.00,,,0.00,Weather View 32 v70,2013-02-23 23:30:00,
2013-02-23 18:35:00,78.0,62.0,32.64,South,180,0.0,1.0,58,0.00,,,0.00,Weather View 32 v70,2013-02-23 23:35:00,
2013-02-23 18:40:00,78.0,62.0,32.64,South,180,0.0,1.0,58,0.00,,,0.00,Weather View 32 v70,2013-02-23 23:40:00,
2013-02-23 18:45:00,78.0,62.9,32.64,South,180,0.0,1.0,60,0.00,,,0.00,Weather View 32 v70,2013-02-23 23:45:00,
2013-02-23 18:50:00,77.0,62.0,32.64,South,180,0.0,1.0,60,0.00,,,0.00,Weather View 32 v70,2013-02-23 23:50:00,
2013-02-23 18:55:00,77.0,62.0,32.65,South,180,0.0,1.0,60,0.00,,,0.00,Weather View 32 v70,2013-02-23 23:55:00,
2013-02-23 19:00:00,77.0,62.0,32.65,South,180,0.0,1.0,60,0.00,,,0.00,Weather View 32 v70,2013-02-24 00:00:00,
2013-02-23 19:05:00,77.0,62.0,32.66,South,180,0.0,1.0,60,0.00,,,0.00,Weather View 32 v70,2013-02-24 00:05:00,
2013-02-23 19:10:00,76.0,61.1,32.66,South,180,0.0,1.0,60,0.00,,,0.00,Weather View 32 v70,2013-02-24 00:10:00,
2013-02-23 19:15:00,76.0,61.5,32.66,South,180,0.0,0.0,61,0.00,,,0.00,Weather View 32 v70,2013-02-24 00:15:00,
2013-02-23 19:20:00,76.0,62.0,32.66,South,180,0.0,0.0,62,0.00,,,0.00,Weather View 32 v70,2013-02-24 00:20:00,
2013-02-23 19:25:00,76.0,62.0,32.66,South,180,0.0,0.0,62,0.00,,,0.00,Weather View 32 v70,2013-02-24 00:25:00,
2013-02-23 19:30:00,75.0,61.1,32.66,South,180,0.0,0.0,62,0.00,,,0.00,Weather View 32 v70,2013-02-24 00:30:00,
2013-02-23 19:35:00,75.0,61.5,32.66,South,180,0.0,0.0,63,0.00,,,0.00,Weather View 32 v70,2013-02-24 00:35:00,
2013-02-23 19:40:00,75.0,62.4,32.66,South,180,0.0,0.0,65,0.00,,,0.00,Weather View 32 v70,2013-02-24 00:40:00,
2013-02-23 19:45:00,74.0,61.4,32.67,South,180,0.0,0.0,65,0.00,,,0.00,Weather View 32 v70,2013-02-24 00:45:00,
2013-02-23 19:50:00,74.0,61.9,32.67,South,180,0.0,0.0,66,0.00,,,0.00,Weather View 32 v70,2013-02-24 00:50:00,
2013-02-23 19:55:00,74.0,61.9,32.67,South,180,0.0,0.0,66,0.00,,,0.00,Weather View 32 v70,2013-02-24 00:55:00,
2013-02-23 20:00:00,74.0,61.9,32.67,South,180,0.0,0.0,66,0.00,,,0.00,Weather View 32 v70,2013-02-24 01:00:00,
2013-02-23 20:05:00,74.0,62.7,32.67,South,180,0.0,0.0,68,0.00,,,0.00,Weather View 32 v70,2013-02-24 01:05:00,
2013-02-23 20:10:00,73.0,62.2,32.67,South,180,0.0,0.0,69,0.00,,,0.00,Weather View 32 v70,2013-02-24 01:10:00,
2013-02-23 20:15:00,73.0,62.2,32.67,South,180,0.0,0.0,69,0.00,,,0.00,Weather View 32 v70,2013-02-24 01:15:00,
2013-02-23 20:20:00,73.0,63.0,32.67,South,180,0.0,0.0,71,0.00,,,0.00,Weather View 32 v70,2013-02-24 01:20:00,
2013-02-23 20:25:00,73.0,63.0,32.67,South,180,0.0,0.0,71,0.00,,,0.00,Weather View 32 v70,2013-02-24 01:25:00,
2013-02-23 20:30:00,72.0,62.0,32.67,South,180,0.0,0.0,71,0.00,,,0.00,Weather View 32 v70,2013-02-24 01:30:00,
2013-02-23 20:35:00,72.0,62.4,32.68,South,180,0.0,0.0,72,0.00,,,0.00,Weather View 32 v70,2013-02-24 01:35:00,
2013-02-23 20:40:00,72.0,62.8,32.68,South,180,0.0,0.0,73,0.00,,,0.00,Weather View 32 v70,2013-02-24 01:40:00,
2013-02-23 20:45:00,72.0,63.2,32.68,South,180,0.0,0.0,74,0.00,,,0.00,Weather View 32 v70,2013-02-24 01:45:00,
2013-02-23 20:50:00,71.0,62.6,32.68,South,180,0.0,0.0,75,0.00,,,0.00,Weather View 32 v70,2013-02-24 01:50:00,
2013-02-23 20:55:00,71.0,62.6,32.68,South,180,0.0,0.0,75,0.00,,,0.00,Weather View 32 v70,2013-02-24 01:55:00,
2013-02-23 21:00:00,71.0,63.8,32.68,South,180,0.0,0.0,78,0.00,,,0.00,Weather View 32 v70,2013-02-24 02:00:00,
2013-02-23 21:05:00,71.0,63.8,32.68,South,180,0.0,0.0,78,0.00,,,0.00,Weather View 32 v70,2013-02-24 02:05:00,
2013-02-23 21:10:00,71.0,64.5,32.68,South,180,0.0,0.0,80,0.00,,,0.00,Weather View 32 v70,2013-02-24 02:10:00,
2013-02-23 21:15:00,71.0,64.5,32.68,South,180,0.0,0.0,80,0.00,,,0.00,Weather View 32 v70,2013-02-24 02:15:00,
2013-02-23 21:20:00,71.0,64.5,32.68,South,180,0.0,0.0,80,0.00,,,0.00,Weather View 32 v70,2013-02-24 02:20:00,
2013-02-23 21:25:00,71.0,64.5,32.68,South,180,0.0,0.0,80,0.00,,,0.00,Weather View 32 v70,2013-02-24 02:25:00,
2013-02-23 21:30:00,71.0,64.5,32.68,South,180,0.0,0.0,80,0.00,,,0.00,Weather View 32 v70,2013-02-24 02:30:00,
2013-02-23 21:35:00,71.0,64.5,32.68,South,180,0.0,0.0,80,0.00,,,0.00,Weather View 32 v70,2013-02-24 02:35:00,
2013-02-23 21:40:00,71.0,64.5,32.68,South,180,0.0,0.0,80,0.00,,,0.00,Weather View 32 v70,2013-02-24 02:40:00,
2013-02-23 21:45:00,71.0,64.5,32.68,South,180,0.0,0.0,80,0.00,,,0.00,Weather View 32 v70,2013-02-24 02:45:00,
2013-02-23 21:50:00,71.0,64.5,32.68,South,180,0.0,0.0,80,0.00,,,0.00,Weather View 32 v70,2013-02-24 02:50:00,
2013-02-23 21:55:00,71.0,64.5,32.68,South,180,0.0,0.0,80,0.00,,,0.00,Weather View 32 v70,2013-02-24 02:55:00,
2013-02-23 22:00:00,71.0,64.5,32.68,South,180,0.0,0.0,80,0.00,,,0.00,Weather View 32 v70,2013-02-24 03:00:00,
2013-02-23 22:05:00,71.0,64.5,32.69,South,180,0.0,0.0,80,0.00,,,0.00,Weather View 32 v70,2013-02-24 03:05:00,
2013-02-23 22:10:00,71.0,64.5,32.69,South,180,0.0,0.0,80,0.00,,,0.00,Weather View 32 v70,2013-02-24 03:10:00,
2013-02-23 22:15:00,71.0,64.5,32.69,South,180,0.0,0.0,80,0.00,,,0.00,Weather View 32 v70,2013-02-24 03:15:00,
2013-02-23 22:20:00,71.0,64.5,32.69,South,180,0.0,0.0,80,0.00,,,0.00,Weather View 32 v70,2013-02-24 03:20:00,
2013-02-23 22:25:00,71.0,64.5,32.69,South,180,0.0,0.0,80,0.00,,,0.00,Weather View 32 v70,2013-02-24 03:25:00,
2013-02-23 22:30:00,71.0,64.5,32.69,South,180,0.0,0.0,80,0.00,,,0.00,Weather View 32 v70,2013-02-24 03:30:00,
2013-02-23 22:35:00,70.0,63.5,32.69,South,180,0.0,0.0,80,0.00,,,0.00,Weather View 32 v70,2013-02-24 03:35:00,
2013-02-23 22:40:00,70.0,63.5,32.69,South,180,0.0,0.0,80,0.00,,,0.00,Weather View 32 v70,2013-02-24 03:40:00,
2013-02-23 22:45:00,70.0,63.5,32.69,South,180,0.0,0.0,80,0.00,,,0.00,Weather View 32 v70,2013-02-24 03:45:00,
2013-02-23 22:50:00,70.0,63.5,32.69,South,180,0.0,0.0,80,0.00,,,0.00,Weather View 32 v70,2013-02-24 03:50:00,
2013-02-23 22:55:00,70.0,63.5,32.69,South,180,0.0,0.0,80,0.00,,,0.00,Weather View 32 v70,2013-02-24 03:55:00,
2013-02-23 23:00:00,70.0,63.5,32.69,South,180,0.0,0.0,80,0.00,,,0.00,Weather View 32 v70,2013-02-24 04:00:00,
2013-02-23 23:05:00,70.0,63.5,32.69,South,180,0.0,0.0,80,0.00,,,0.00,Weather View 32 v70,2013-02-24 04:05:00,
2013-02-23 23:10:00,70.0,63.5,32.69,South,180,0.0,0.0,80,0.00,,,0.00,Weather View 32 v70,2013-02-24 04:10:00,
2013-02-23 23:15:00,70.0,63.5,32.70,South,180,0.0,0.0,80,0.00,,,0.00,Weather View 32 v70,2013-02-24 04:15:00,
2013-02-23 23:20:00,70.0,63.5,32.70,South,180,0.0,0.0,80,0.00,,,0.00,Weather View 32 v70,2013-02-24 04:20:00,
2013-02-23 23:25:00,70.0,63.5,32.70,South,180,0.0,0.0,80,0.00,,,0.00,Weather View 32 v70,2013-02-24 04:25:00,
2013-02-23 23:30:00,70.0,63.5,32.70,South,180,0.0,0.0,80,0.00,,,0.00,Weather View 32 v70,2013-02-24 04:30:00,
2013-02-23 23:35:00,70.0,63.5,32.70,South,180,0.0,0.0,80,0.00,,,0.00,Weather View 32 v70,2013-02-24 04:35:00,
2013-02-23 23:40:00,70.0,63.5,32.70,South,180,0.0,0.0,80,0.00,,,0.00,Weather View 32 v70,2013-02-24 04:40:00,
2013-02-23 23:45:00,70.0,63.5,32.70,South,180,0.0,0.0,80,0.00,,,0.00,Weather View 32 v70,2013-02-24 04:45:00,
2013-02-23 23:50:00,70.0,63.5,32.70,South,180,0.0,0.0,80,0.00,,,0.00,Weather View 32 v70,2013-02-24 04:50:00,
2013-02-23 23:55:00,70.0,63.5,32.70,South,180,0.0,0.0,80,0.00,,,0.00,Weather View 32 v70,2013-02-24 04:55:00,